Location: Bushey
(51.6333°N, 0.3667°W)
Time: 13:07:08
(UTC+00:00)

H-2A R/B - Pass Details

Date: 03 March 2021
Orbit: 577 x 654 km, 98.5° (Epoch: 12 April)

Event Time Altitude Azimuth Distance (km) Brightness Sun altitude
Rises 18:30:00 0° 10° (N) 2,812 5.3 -7.7°
Reaches altitude 10° 18:32:14 10° 3° (N) 1,905 4.5 -8.0°
Maximum altitude 18:36:07 42° 293° (WNW) 831 3.3 -8.6°
Drops below altitude 10° 18:39:59 10° 222° (SW) 1,895 5.2 -9.2°
Sets 18:42:12 0° 216° (SW) 2,795 5.9 -9.6°
